Regional Weather Roundup
Issued by NWS

Home | Current Version | Previous Version | Graphics & Text | Print | Product List | Glossary On
Versions: 1 2 3 4 5 6 7 8 9 10 11 12 13 14 15 16 17 18 19 20 21 22 23 24 25 26 27 28 29 30 31 32 33 34 35 36 37 38 39 40 41 42 43 44 45 46 47 48 49 50
000
ASUS44 KMEG 210410
RWRTN
TENNESSEE HOURLY STATE WEATHER ROUNDUP
NATIONAL WEATHER SERVICE MEMPHIS TN
1100 PM CDT WED SEP 20 2017

TNZ002-004-019-021-049-052-054-088>092-210500-
WEST TENNESSEE

CITY           SKY/WX    TMP DP  RH WIND       PRES   REMARKS
MEMPHIS INTL   CLEAR     80  74  81 S8        29.99S
NWS MEMPHIS      N/A     79 N/A N/A MISG        N/A
JACKSON        CLEAR     76  73  91 S3        30.00S
DYERSBURG      CLEAR     77  73  87 S3        29.99S
SOMERVILLE     CLEAR     77  73  88 S3        29.99S
COVINGTON      CLEAR     79  73  83 S3        29.98S
BOLIVAR        CLEAR     73  72  94 CALM      30.00S FOG
PARIS          CLEAR     72  70  94 CALM      30.00S
HUNTINGDON     CLEAR     73  72  94 CALM      30.00S
LEXINGTON      CLEAR     73  72  94 CALM      30.01S FOG
SELMER         CLEAR     75  72  88 S5        30.01F
SAVANNAH       CLEAR     75  73  94 CALM      30.01S
$$

TNZ008-025-027-028-033-062-065-066-210500-
NORTH MIDDLE TENNESSEE

CITY           SKY/WX    TMP DP  RH WIND       PRES   REMARKS
NASHVILLE      CLEAR     75  69  81 SE5       30.04R
PORTLAND       CLEAR     72  70  94 S5        30.03S
CLARKSVILLE    CLEAR     72  69  90 CALM      30.01S
SMYRNA           N/A    N/A N/A N/A MISG        N/A
COOKEVILLE     CLEAR     66  66 100 CALM      30.06S
GALLATIN       PTCLDY    73  70  88 CALM      30.06S
CROSSVILLE     CLEAR     65  64  97 CALM      30.12S
$$

TNZ061-075-076-078-094-096-097-210500-
SOUTH MIDDLE TENNESSEE

CITY           SKY/WX    TMP DP  RH WIND       PRES   REMARKS
FAYETTEVILLE   CLEAR     73  72  94 CALM      30.05S
TULLAHOMA      CLEAR     70  66  88 CALM      30.08R
WINCHESTER     CLEAR     70  66  88 CALM        N/A
MCMINNVILLE    CLEAR     70  70 100 CALM      30.07S
COLUMBIA       MOCLDY    73  73 100 CALM      30.02S
SHELBYVILLE    PTCLDY    72  70  94 CALM      30.05R
$$

TNZ017-018-042-046-047-210500-
NORTHEAST TENNESSEE

CITY           SKY/WX    TMP DP  RH WIND       PRES   REMARKS
TRI CITIES     CLEAR     66  63  90 CALM      30.10S
ELIZABETHTON   CLEAR     64  61  88 CALM      30.11S
$$

TNZ012-013-036-069-073-074-210500-
CENTRAL EAST TENNESSEE

CITY           SKY/WX    TMP DP  RH WIND       PRES   REMARKS
KNOXVILLE      CLEAR     73  66  78 CALM      30.06S
OAK RIDGE      CLEAR     69  66  90 CALM      30.08S
DOWNTOWN KNOXV CLEAR     68  68 100 CALM      30.06S FOG
GATLINBURG     CLEAR     66  63  88 CALM      30.07S
MORRISTOWN     CLEAR     68  64  88 CALM      30.07F
JACKSBORO      CLEAR     66  66 100 CALM      30.11S FOG
$$

TNZ083-085-099-210500-
SOUTHEAST TENNESSEE

CITY           SKY/WX    TMP DP  RH WIND       PRES   REMARKS
CHATTANOOGA    PTCLDY    73  69  87 CALM      30.06S
DAYTON         CLEAR     68  68 100 CALM      30.05S FOG
$$

SKY/WX REPORTED AS FAIR MEANS FEW OR NO CLOUDS BELOW
12 THOUSAND FEET.





USA.gov is the U.S. government's official web portal to all federal, state and local government web resources and services.